Location: Cheching
(60.0667°N, 164.2167°W)
Time: 00:02:30
(UTC+00:00)

Envisat - Visible Passes

Search period start: 21 January 2022 00:00
Search period end: 31 January 2022 00:00
Orbit: 764 x 766 km, 98.2° (Epoch: 20 January)

Date Brightness Start Highest point End Pass type
(mag) Time Alt. Az. Time Alt. Az. Time Alt. Az.
21 Jan 5.1 03:46:32 10° SSW 03:50:59 30° W 03:55:28 10° NNW visible
21 Jan 5.9 14:07:06 10° NE 14:09:00 12° ENE 14:10:53 10° E visible
21 Jan 3.8 15:44:18 10° NNE 15:49:16 51° E 15:54:14 10° S visible
21 Jan 3.4 17:23:31 10° N 17:28:16 41° WNW 17:33:00 10° SW visible
22 Jan 6.1 04:52:07 10° W 04:54:04 12° WNW 04:56:03 10° NW visible
22 Jan 4.8 15:07:37 10° NNE 15:12:06 30° E 15:16:32 10° SSE visible
22 Jan 2.9 16:46:28 10° NNE 16:51:32 67° WNW 16:56:35 10° SSW visible
22 Jan 4.3 18:26:10 10° N 18:29:50 20° NW 18:33:28 10° W visible
23 Jan 5.7 04:12:46 10° SW 04:16:35 21° W 04:20:25 10° NW visible
23 Jan 5.5 14:31:20 10° NE 14:34:44 18° E 14:38:07 10° SE visible
23 Jan 3.1 16:09:32 10° NNE 16:14:40 74° ESE 16:19:45 10° S visible
23 Jan 3.8 17:48:58 10° N 17:53:21 30° NW 17:57:44 10° WSW visible
24 Jan 4.8 03:34:38 10° SSW 03:39:17 35° W 03:43:58 10° NNW visible
24 Jan 4.1 15:32:44 10° NNE 15:37:37 43° E 15:42:26 10° S visible
24 Jan 3.2 17:11:51 10° N 17:16:44 47° WNW 17:21:35 10° SW visible
25 Jan 5.9 04:39:32 10° WSW 04:42:16 14° W 04:45:02 10° NW visible
25 Jan 5.0 14:56:09 10° NNE 15:00:22 25° E 15:04:34 10° SE visible
25 Jan 2.9 16:34:51 10° NNE 16:39:58 78° WNW 16:45:03 10° SSW visible
25 Jan 4.1 18:14:27 10° N 18:18:22 23° NW 18:22:16 10° W visible
26 Jan 5.5 04:00:42 10° SW 04:04:50 25° W 04:09:00 10° NW visible
26 Jan 5.7 14:20:04 10° NE 14:22:57 15° E 14:25:49 10° ESE visible
26 Jan 3.4 15:57:57 10° NNE 16:03:02 63° ESE 16:08:04 10° S visible
26 Jan 3.6 17:37:17 10° N 17:41:51 34° NW 17:46:24 10° WSW visible
27 Jan 4.4 15:21:12 10° NNE 15:25:55 36° E 15:30:37 10° SSE visible
27 Jan 3.1 17:00:13 10° NNE 17:05:11 55° WNW 17:10:09 10° SW visible
28 Jan 5.8 04:27:11 10° WSW 04:30:29 17° W 04:33:47 10° NW visible
28 Jan 5.3 14:44:43 10° NE 14:48:38 22° E 14:52:32 10° SE visible
28 Jan 2.9 16:23:14 10° NNE 16:28:22 90° E 16:33:29 10° SSW visible
28 Jan 4.0 18:02:45 10° N 18:06:54 26° NW 18:11:02 10° WSW visible
29 Jan 5.2 03:48:43 10° SSW 03:53:06 29° W 03:57:32 10° NNW visible
29 Jan 5.9 14:08:59 10° NE 14:11:09 13° ENE 14:13:18 10° ESE visible
29 Jan 3.7 15:46:22 10° NNE 15:51:23 53° E 15:56:21 10° S visible
29 Jan 3.4 17:25:37 10° N 17:30:20 39° WNW 17:35:02 10° SW visible
30 Jan 6.2 04:54:34 10° W 04:56:14 11° WNW 04:57:53 10° WNW visible
30 Jan 4.7 15:09:41 10° NNE 15:14:13 31° E 15:18:43 10° SSE visible
30 Jan 2.9 16:48:34 10° NNE 16:53:38 64° WNW 16:58:39 10° SW visible
